Location: Unspecified
(0.0000°N, 0.0000°E)
Time: 14:19:59
(UTC+00:00)

deb Midas V - Pass Details

Date: 22 April 2026
Orbit: 2771 x 3389 km, 86.6° (Epoch: 16 May)

Event Time Altitude Azimuth Distance (km) Brightness Sun altitude
Rises 04:14:54 0° 148° (SSE) 6,638 ? -25.3°
Reaches altitude 10° 04:20:04 10° 134° (SE) 5,675 ? -24.0°
Maximum altitude 04:31:13 24° 86° (E) 4,724 ? -21.3°
Drops below altitude 10° 04:42:48 10° 38° (NE) 6,027 ? -18.5°
Sets 04:48:19 0° 26° (NNE) 7,139 ? -17.2°
